User: anonymous   Login
Location: Granada
(37.1830°N, 3.6000°W)
Time: 04:47:05
(UTC+02:00)
Language:

Iridium 70 - Orbit

View from above orbital plane
View from above orbital plane
View from above satellite
View from above satellite

Ground track
Ground track

The orbit data is extracted from the following two-line orbital elements,

1 25342U 98032A   16146.58554417  .00000196  00000-0  62936-4 0  9991
2 25342  86.3986  26.2745 0002104  88.7082 333.8708 14.34214786943541
Epoch (UTC): 25 May 2016 14:03:11
Eccentricity: 0.0002104
inclination: 86.3986°
perigee height: 776 km
apogee height: 779 km
right ascension of ascending node: 26.2745°
argument of perigee: 88.7082°
revolutions per day: 14.34214786
mean anomaly at epoch: 333.8708°
orbit number at epoch: 94354

The dashed part of the orbit path shows where the satellite is in the earth's shadow,  

DLR